This demonstration page uses our WeatherBlox Daily Observations layout. Learn more.

Left ArrowRight Arrow

39.08367, -84.50855

Hourly Observations for June 6, 2015

Temp ( °F °C ) Dew Point ( °F °C ) Humidity (%) Winds ( mph kmh ) Pressure ( in mb ) Visibility ( mi km ) Precip ( " mm )
12:53 am 00:53 Clear with Mist and Fog 63 17.2 63 17.2 100 100 N N/A 29.98 1015 4 6 N/A
1:27 am 01:27 Clear with Mist and Fog 63 17.2 63 17.2 100 100 N N/A 29.97 1015 2 3 N/A
1:36 am 01:36 Clear with Mist and Fog 62 16.7 62 16.7 100 100 N N/A 29.97 1015 5 8 N/A
1:53 am 01:53 Clear 63 17.2 62 16.7 97 97 N N/A 29.98 1015 7 11 N/A
2:53 am 02:53 Clear 63 17.2 62 16.7 97 97 NNE 8 13 30.00 1016 9 14 N/A
3:49 am 03:49 Mostly Cloudy 66 19 63 17 88 88 NE 12 19 29.97 1015 7 11 N/A
3:53 am 03:53 Mostly Cloudy with Mist and Fog 66 18.9 63 17.2 90 90 NE 9 15 30.00 1016 6 10 N/A
4:53 am 04:53 Cloudy 67 19.4 62 16.7 84 84 NNE 10 17 30.01 1016 7 11 N/A
5:53 am 05:53 Partly Cloudy with Mist and Fog 64 17.8 61 16.1 90 90 NE 7 11 30.03 1017 6 10 N/A
6:01 am 06:01 Mostly Cloudy with Mist and Fog 64 17.8 61 16.1 90 90 ENE 8 13 30.00 1016 6 10 N/A
6:53 am 06:53 Mostly Cloudy 64 17.8 61 16.1 90 90 NE 10 17 30.04 1017 7 11 N/A
7:53 am 07:53 Mostly Cloudy 65 18.3 60 15.6 84 84 ENE 12 19 30.05 1018 7 11 N/A
8:53 am 08:53 Mostly Cloudy 65 18.3 59 15 81 81 NNE 8 13 30.08 1019 7 11 N/A
9:53 am 09:53 Cloudy 67 19.4 60 15.6 79 79 NE 7 11 30.08 1019 7 11 N/A
10:53 am 10:53 Cloudy 68 20 60 15.6 76 76 NNE 9 15 30.09 1019 7 11 N/A
11:53 am 11:53 Cloudy 70 21.1 61 16.1 73 73 ENE 12 19 30.09 1019 8 13 N/A
12:53 pm 12:53 Mostly Sunny 72 22.2 61 16.1 68 68 ENE 9 15 30.08 1019 9 14 N/A
1:53 pm 13:53 Partly Cloudy 74 23.3 62 16.7 67 67 NE 7 11 30.06 1018 10 16 N/A
2:53 pm 14:53 Partly Cloudy 75 23.9 62 16.7 64 64 ENE 8 13 30.06 1018 10 16 N/A
3:53 pm 15:53 Partly Cloudy 77 25 63 17.2 62 62 NNE 5 7 30.05 1018 10 16 N/A
4:53 pm 16:53 Sunny 76 24.4 62 16.7 62 62 NNE 9 15 30.04 1017 10 16 N/A
5:53 pm 17:53 Mostly Sunny 76 24.4 62 16.7 62 62 ENE 6 9 30.04 1017 10 16 N/A
6:53 pm 18:53 Mostly Sunny 75 23.9 61 16.1 62 62 ENE 6 9 30.02 1017 10 16 N/A
7:53 pm 19:53 Mostly Sunny 74 23.3 62 16.7 67 67 E 6 9 30.02 1017 10 16 N/A
8:53 pm 20:53 Sunny 70 21.1 62 16.7 76 76 SSE 6 9 30.02 1017 9 14 N/A
9:53 pm 21:53 Clear 68 20 62 16.7 81 81 SSE 5 7 30.02 1017 10 16 N/A
10:53 pm 22:53 Clear 65 18.3 62 16.7 90 90 N N/A 30.03 1017 7 11 N/A
11:53 pm 23:53 Clear with Mist and Fog 62 16.7 62 16.7 100 100 N N/A 30.03 1017 5 8 N/A
11:58 pm 23:58 Clear with Mist and Fog 63 17 61 16 94 94 N N/A 30.00 1016 2 3 N/A

Powered by AerisWeather